Location: G?ogowiec
(50.1877°N, 22.5574°E)
Time: 05:36:57
(UTC+00:00)

Daily predictions for brighter satellites

Satellite Brightness Start Highest point End
(mag) Time Altitude Azimuth Time Altitude Azimuth Time Altitude Azimuth
Meteor 2-19 Rocket 4.4 00:03:21 10° NNW 00:09:31 73° W 00:11:31 44° SSW
Okean 1 Rocket 3.8 00:09:30 39° W 00:09:40 39° WNW 00:13:49 10° N
SJ 16-02 1.7 00:09:53 48° W 00:10:20 50° WNW 00:14:39 10° NNE
SL-16 R/B 3.2 00:09:17 10° NW 00:13:48 29° W 00:13:48 29° W
Cosmos 2263 Rocket 2.7 00:14:58 37° SSE 00:16:43 49° ESE 00:22:04 10° NE
SL-14 R/B 3.9 00:13:57 10° NNW 00:17:08 43° WNW 00:17:08 43° WNW
Cosmos 724 4.4 00:13:16 10° NW 00:19:08 57° WSW 00:20:59 41° S
NOSS 2-3 (D) 3.8 00:21:05 51° SSE 00:21:44 56° SE 00:26:43 10° NE
MOZ.5/SAFIR/RUBIN 5/SL-8 4.1 00:22:13 47° WSW 00:22:29 48° W 00:27:05 10° NNW
SL-19 R/B 4.4 00:19:16 10° N 00:25:02 62° WNW 00:26:52 41° SW
Cosmos 1937 Rocket 3.5 00:27:08 47° SSW 00:28:42 85° WNW 00:34:04 10° NNE
CZ-4C R/B 3.3 00:29:47 54° WNW 00:29:47 54° WNW 00:33:02 10° NNW
Okean 1-7 Rocket 3.7 00:26:27 10° NNW 00:30:48 55° W 00:31:14 53° WSW
ADEOS II 3.0 00:25:47 10° NNE 00:30:48 43° E 00:33:35 24° SSE
COBE Rocket 3.8 00:29:03 36° SSE 00:30:56 79° ENE 00:35:37 10° N
Cosmos 990 Rocket 4.2 00:29:47 42° WSW 00:31:17 58° WNW 00:36:23 10° NNE
Cosmos 2297 Rocket 3.7 00:28:54 17° W 00:32:07 27° NW 00:36:53 10° NNE
Cosmos 1626 Rocket 3.5 00:30:12 10° N 00:34:33 79° E 00:35:58 42° SSE
CZ-4B R/B 3.8 00:30:09 10° NNE 00:34:51 55° ESE 00:36:44 33° SSE
Cosmos 2266 Rocket 4.0 00:29:28 10° NNW 00:35:44 66° W 00:38:25 35° SSW
Cosmos 1455 Rocket 3.1 00:35:30 53° SW 00:36:20 66° WNW 00:40:49 10° N
ATLAS CENTAUR R/B 2.7 00:37:35 26° SE 00:38:21 27° ESE 00:41:43 10° ENE
UNK 4.0 00:38:59 44° WSW 00:39:34 47° W 00:44:07 10° NNW
USA 229 DEB 3.6 00:36:45 34° SW 00:39:54 81° NW 00:46:54 10° NE
USA 229 3.6 00:36:53 34° SW 00:40:00 81° NW 00:47:00 10° NE
Cosmos 1726 2.4 00:39:49 48° SE 00:40:31 58° E 00:44:07 10° NNE
Meteor 2-21 4.4 00:37:48 10° N 00:43:55 87° E 00:48:07 21° S
GEOS 3 Rocket 3.7 00:39:39 10° NE 00:45:05 72° SE 00:47:19 36° SSW
Meteor 1-21 Rocket 4.1 00:40:01 10° NNW 00:45:35 85° ENE 00:49:17 22° SSE
Cosmos 1898 Rocket 4.0 00:43:57 34° WSW 00:45:47 49° WNW 00:50:51 10° NNE
Cosmos 1932 4.4 00:41:30 10° NW 00:47:59 69° SW 00:54:17 10° SSE
CBERS-1 4.2 00:43:06 10° NNE 00:48:13 65° ESE 00:50:48 29° S
Meteor 1-24 Rocket 4.5 00:43:40 10° NNW 00:48:18 30° W 00:49:06 29° WSW
Meteor 2-10 4.3 00:46:10 30° S 00:49:01 77° E 00:54:45 10° NNE
NOSS 2-3 (C) 3.7 00:48:09 44° SW 00:49:34 89° NW 00:54:51 10° NE
NOSS 3-1 (A) 3.3 00:48:36 35° SW 00:51:09 87° NW 00:57:48 10° NE
ARIANE 5 R/B 3.8 00:46:55 10° NNE 00:51:45 36° E 00:55:52 13° SSE
Cosmos 2084 4.2 00:52:15 33° SSE 00:53:34 43° SE 00:57:48 10° NE
Cosmos 1603 4.0 00:49:30 10° NW 00:55:00 47° WSW 00:57:17 31° SSW
Cosmos 1758 Rocket 4.2 00:53:01 10° N 00:57:16 54° ENE 01:01:08 12° SSE
BREEZE-M R/B 4.1 01:00:31 23° SE 01:00:31 23° SE 01:02:07 10° ESE
Cosmos 494 Rocket 4.3 00:58:12 10° NNW 01:03:22 66° ENE 01:08:32 10° SE
Cosmos 2150 Rocket 4.2 01:01:58 28° S 01:04:44 67° ESE 01:09:59 10° NNE
CZ-2D R/B 2.6 01:00:11 10° N 01:05:28 49° WNW 01:08:00 28° SW
MINOTAUR IV R/B 4.5 01:01:39 10° NNW 01:06:06 65° WSW 01:08:58 21° S
Cosmos 1340 Rocket 3.6 01:07:07 32° W 01:07:57 36° WNW 01:11:37 10° N
Cosmos 1758 4.0 01:08:43 34° WSW 01:09:38 39° WNW 01:13:25 10° N
SL-16 R/B 3.3 01:09:25 26° SW 01:11:29 32° W 01:17:02 10° NNW
H-2A R/B 3.9 01:08:03 10° SE 01:11:38 30° ENE 01:15:16 10° N
USA 215 4.2 01:06:19 10° ENE 01:12:13 35° SE 01:16:30 17° S
Nadezhda 2 Rocket 4.4 01:06:55 10° NNW 01:13:08 75° W 01:18:09 16° S
Cosmos 1943 3.6 01:08:17 10° NW 01:13:30 40° WSW 01:16:10 25° SSW
Cosmos 1703 3.2 01:10:43 10° N 01:14:42 86° E 01:17:24 20° S
Cosmos 1825 Rocket 3.8 01:11:34 10° N 01:15:55 66° ENE 01:20:11 10° SSE
Cosmos 1125 Rocket 4.0 01:13:42 20° S 01:17:14 57° ESE 01:22:25 10° NNE
IRS-1C 4.2 01:13:19 10° NNE 01:18:41 75° ESE 01:22:34 19° S
IRS-1D 3.6 01:17:33 10° N 01:22:37 66° WNW 01:25:39 25° SW
Cosmos 2227 Rocket 4.3 01:19:41 10° WNW 01:23:23 17° NNW 01:27:06 10° N
NPP 4.3 01:19:11 10° N 01:24:12 41° WNW 01:27:04 23° WSW
Cosmos 1470 4.2 01:24:18 21° W 01:25:20 23° WNW 01:28:36 10° NNW
Cosmos 1953 2.6 01:23:54 31° SW 01:25:30 51° WNW 01:29:30 10° N
Cosmos 1953 Rocket 4.2 01:22:51 10° N 01:27:19 59° ENE 01:31:43 10° SSE
Cosmos 1328 3.7 01:24:19 10° NNW 01:28:20 80° W 01:31:32 16° S
CZ-2D R/B 4.0 01:28:52 10° NNE 01:32:46 51° E 01:36:12 13° S
NOSS 8 (F) 4.4 01:33:17 31° SSW 01:34:32 60° SE 01:37:32 10° NE
CENTAUR R/B 4.2 01:29:52 10° NW 01:37:11 46° NNE 01:45:25 10° ESE
Resurs 1-4 Rocket 3.4 01:34:15 10° N 01:38:38 27° WNW 01:41:36 17° WSW
Atlas Centaur 2 4.3 01:38:02 12° S 01:39:53 13° S 01:42:53 10° SE
Cosmos 1606 Rocket 3.6 01:42:16 14° S 01:46:09 85° E 01:50:38 10° N
USA 267 3.4 01:39:51 10° ESE 01:46:24 78° NNE 01:52:57 10° WNW
IDEFIX/ARIANE 42P 2.8 01:42:34 10° NNE 01:47:48 71° ESE 01:53:00 10° S
Cosmos 1417 Rocket 4.5 01:44:29 10° S 01:50:41 84° W 01:56:56 10° N
MSX 4.4 01:45:44 10° NNE 01:51:26 57° E 01:57:06 10° S
IRS-P3 4.4 01:52:19 10° N 01:57:32 53° WNW 02:01:52 15° SW
Cosmos 1908 3.7 01:56:15 19° SW 01:58:47 44° WNW 02:02:34 10° N
Cosmos 2263 Rocket 3.1 01:56:40 14° WSW 02:00:50 35° NW 02:05:57 10° NNE
Cosmos 1726 Rocket 3.6 01:56:25 10° S 02:00:52 86° W 02:05:22 10° N
Cosmos 1386 Rocket 4.4 01:55:09 10° NNW 02:01:10 74° W 02:07:09 10° S
Cosmos 1844 4.2 01:55:49 10° S 02:01:30 60° ESE 02:07:09 10° NE
Cosmos 2228 3.1 01:59:31 13° SSW 02:03:23 65° WNW 02:07:48 10° N
Helios 1B 4.5 01:59:44 10° S 02:04:04 73° WSW 02:08:26 10° NNW
Meteor 1-28 Rocket 4.3 02:06:34 15° SW 02:08:53 26° W 02:12:09 10° NW
SL-08 R/B 4.2 02:05:26 11° SSW 02:09:42 32° W 02:14:08 10° NNW
ADEOS II 3.0 02:05:44 10° N 02:10:24 33° WNW 02:14:32 13° WSW
Spot 4 Rocket 4.1 02:07:16 10° NNE 02:12:26 72° WNW 02:17:34 10° SSW
CZ-2C R/B 2.7 02:08:54 10° NNE 02:12:45 87° E 02:16:30 10° SSW
Cosmos 1356 Rocket 3.4 02:10:30 10° SSW 02:14:38 66° WNW 02:18:43 10° N
Cosmos 1726 4.2 02:14:19 10° W 02:16:07 13° WNW 02:17:57 10° NW
Cosmos 2285 Rocket 4.5 02:10:59 13° SW 02:16:26 48° WNW 02:22:31 10° NNE
ATLAS CENTAUR R/B 1.9 02:13:46 13° WSW 02:17:06 43° NW 02:20:49 10° NNE
Cosmos 1269 Rocket 4.1 02:13:26 10° NNW 02:18:36 54° WSW 02:23:45 10° S
Cosmos 1300 2.6 02:15:10 10° SSW 02:18:59 76° W 02:22:50 10° N
Cosmos 1553 Rocket 4.3 02:15:34 10° SSW 02:21:25 48° WNW 02:27:23 10° N
NOSS 2-2 (C) 3.7 02:18:21 10° SSW 02:21:51 55° SE 02:25:46 10° NE
NOSS 3-2 (A) 4.2 02:14:35 10° NW 02:21:58 84° NE 02:30:22 10° SE
ERS-2 2.1 02:18:55 10° S 02:22:33 67° WSW 02:26:13 10° NNW
Cosmos 2278 Rocket 4.3 02:18:18 10° SSE 02:22:49 25° ESE 02:27:22 10° NE
Cosmos 1844 Rocket 2.7 02:17:52 10° SSW 02:23:27 82° WNW 02:29:05 10° NNE
COSMOS 2441 4.4 02:19:20 10° NNE 02:24:10 90° ENE 02:29:01 10° SSW
USA 281 4.5 02:18:38 10° NE 02:24:46 40° ESE 02:30:51 10° S
Cosmos 2251 Rocket 4.3 02:20:28 10° NNW 02:25:47 59° ENE 02:31:06 10° SE
Cosmos 1833 Rocket 3.8 02:20:48 10° NNW 02:26:18 49° NE 02:31:47 10° SE
CZ-4C R/B 3.3 02:23:13 10° S 02:26:23 43° W 02:29:42 10° NNW
NOSS 8 (H) 4.2 02:24:24 12° SW 02:27:10 65° NW 02:30:14 10° NE
Cosmos 1745 Rocket 4.4 02:24:03 10° NNW 02:29:58 45° W 02:35:47 10° SSW
ARIANE 5 R/B 3.3 02:26:02 10° N 02:30:53 39° WNW 02:35:42 10° SW
NOSS 3-2 (C) 4.4 02:24:42 10° NW 02:32:00 71° NE 02:40:19 10° SE
SAR-Lupe-4 4.2 02:29:16 10° SSE 02:32:47 60° ENE 02:36:21 10° N
Cosmos 2084 4.4 02:29:00 10° WSW 02:33:09 39° NW 02:37:22 10° NE
SeaSat 1 3.6 02:30:07 10° NE 02:34:48 41° ESE 02:39:28 10° S
Lacrosse 5 rocket 3.9 02:31:43 10° S 02:34:54 19° SE 02:38:05 10° E
Cosmos 1867 3.6 02:36:38 10° NW 02:42:06 72° SW 02:47:31 10° SSE
CZ-2D R/B 4.3 02:42:59 10° NNW 02:44:18 11° NW 02:45:37 10° WNW
